ONEWEB-0204, 48225

Orbit data source: Space-Track

ONEWEB-0204, 48225 is a payload satellite owned by One Web (NAA) (UK) in LEO that was launched on Sun, 25 Apr 2021 UTC via a SOYUZ-2-1B launch vehicle from the Vostochny Cosmodrome (VOSTO). Payload-class satellites include a variety of spacecraft equipped with specific instruments for various scientific and technological missions. These include communications satellites like Starlink; space stations such as the ISS; scientific satellites like the Hubble; Earth observation satellites from companies like Planet Labs, Umbra, and HawkEye 360; GPS; miniature CubeSats for education and research; and military/defense satellites.

Loading next visibility...
Identifier
48225, 2021-031R
Orbit
LEO
Country
Flag of UKUK
Related business
Manufacturer
One Web
Mission
Operational Commercial Communications
Bus & Motor
ARROW, Unknown motor
Mass
148 kg wet, ~140 kg dry
Launch date (UTC)
2021-04-25 (5 years ago)
Launch vehicle
SOYUZ-2-1B
Launch site
Vostochny Cosmodrome (VOSTO)
Object type
Payload
Rocket body
Debris
Shape & HBR
Trap Box + 2 Pan, 6.7 m
Radar Cross Section
3.464 m², Large (>1 m²)

Expand to show TLE details & history
Last TLE update: 1 day ago

TLE from 1 day ago
0 ONEWEB-0204
1 48225U 21031R   25306.48356638 -.00000113  00000-0 -33965-3 0  9993
2 48225  87.9012 334.8654 0001605  91.7249 268.4064 13.14500623218474
Epoch: 2025-11-02T11:36Z
TLE epoch observation values (Epoch: 2025-11-02T11:36:20.135Z)
Latitude
-0.00006°
Longitude
118.78286°
Altitude
1,208.727 km
Speed
7.25 km/s
True Right ascension
22h 19m 27s
True Declination
0° 00' 00"
Sunlit
Object was in daylight at epoch
Visualization orbit readout
Latitude
Unknown
Longitude
Unknown
Altitude
Unknown
Speed
Unknown
Apparent Right ascension
Unknown
Apparent Declination
Unknown
Sunlit
N/A
Visualization observer readout
Local Sidereal Time
09:29:22
Azimuth
Unknown
Elevation
Unknown
Doppler factor
Unknown
Orbital elements
Apogee altitude
1,204.129 km
Perigee altitude
1,201.696 km
Semi-major axis
7,581.049 km
Eccentricity
0.00016
Inclination
87.9012°
RAAN
334.8654°
Arg. of periapsis
91.7249°
True anomaly
268.38802°
Mean anomaly
268.4064°
Eccentric anomaly
268.39721°
Mean motion
3.28813 °/min
Orbital period
109.48 mins
BSTAR
-0.00033965
Loading maneuver chart data...
Computing Atmospheric mass density...
Loading historical data...
Loading historical data...
Loading historical data...
Loading historical data...
Loading historical data...
Loading historical data...
Loading historical data...

Documentation

Showing up to 5 results
|